,,PA_Meas_PMT16A,,PR_Meas_QMR101_102,,RH_Meas_QMH101,,SR_Meas_QMS101,,TA_Meas_QMH101,,GenWind,,GenWind,
time,status,PA,status,PR,status,RH,status,SR,status,TA,status,DirAvg,status,SpdAvg,
2010-03-04, 07:00:05,VALID,917.602,VALID,0,VALID,97.8694,VALID,42.7616,VALID,19.5078,VALID,160,VALID,1.6207,
2010-03-04, 07:01:05,VALID,917.613,VALID,0,VALID,97.8618,VALID,43.5137,VALID,19.5273,VALID,168,VALID,0.916406,
2010-03-04, 07:02:05,VALID,917.621,VALID,0,VALID,97.8542,VALID,48.1336,VALID,19.5273,VALID,190,VALID,1.13711,
2010-03-04, 07:03:05,VALID,917.639,VALID,0,VALID,97.8618,VALID,46.3071,VALID,19.5273,VALID,191,VALID,0.855078,
2010-03-04, 07:04:05,VALID,917.631,VALID,0,VALID,97.8542,VALID,47.8113,VALID,19.5468,VALID,145,VALID,1.34258,
2010-03-04, 07:05:05,VALID,917.638,VALID,0,VALID,97.8694,VALID,48.5634,VALID,19.5468,VALID,143,VALID,0.880078,
2010-03-04, 07:06:05,VALID,917.672,VALID,0,VALID,97.8542,VALID,47.7039,VALID,19.5453,VALID,163,VALID,1.25937,
2010-03-04, 07:07:05,VALID,917.669,VALID,0,VALID,97.8389,VALID,50.2825,VALID,19.5663,VALID,126,VALID,1.26719,
2010-03-04, 07:08:05,VALID,917.686,VALID,0,VALID,97.8542,VALID,52.2164,VALID,19.5663,VALID,150,VALID,1.62656,
2010-03-04, 07:09:05,VALID,917.701,VALID,0,VALID,97.8542,VALID,52.3238,VALID,19.5858,VALID,121,VALID,0.907812,
2010-03-04, 07:10:05,VALID,917.683,VALID,0,VALID,97.877,VALID,56.0843,VALID,19.5663,VALID,117,VALID,0.875781,
2010-03-04, 07:11:05,VALID,917.72,VALID,0,VALID,97.8542,VALID,58.0182,VALID,19.6053,VALID,153,VALID,1.35547,
2010-03-04, 07:12:05,VALID,917.685,VALID,0,VALID,97.8618,VALID,57.5885,VALID,19.6053,VALID,136,VALID,0.841406,
2010-03-04, 07:13:05,VALID,917.716,VALID,0,VALID,97.8618,VALID,60.9191,VALID,19.6053,VALID,159,VALID,1.93711,
2010-03-04, 07:14:05,VALID,917.717,VALID,0,VALID,97.8618,VALID,65.6465,VALID,19.6053,VALID,144,VALID,1.71016,
2010-03-04, 07:15:05,VALID,917.742,VALID,0,VALID,97.8389,VALID,67.2582,VALID,19.5858,VALID,163,VALID,1.84648,
2010-03-04, 07:16:05,VALID,917.731,VALID,0,VALID,97.8542,VALID,68.6549,VALID,19.6053,VALID,141,VALID,1.53906,
2010-03-04, 07:17:05,VALID,917.723,VALID,0,VALID,97.8465,VALID,69.7293,VALID,19.6248,VALID,158,VALID,1.57578,
2010-03-04, 07:18:05,VALID,917.73,VALID,0,VALID,97.8618,VALID,77.2502,VALID,19.6248,VALID,185,VALID,1.1625,
2010-03-04, 07:19:05,VALID,917.723,VALID,0,VALID,97.8465,VALID,80.0437,VALID,19.6248,VALID,152,VALID,1.53398,
2010-03-04, 07:20:05,VALID,917.749,VALID,0,VALID,97.8694,VALID,80.0437,VALID,19.6443,VALID,119,VALID,1.5668,
2010-03-04, 07:21:05,VALID,917.777,VALID,0,VALID,97.8465,VALID,84.2339,VALID,19.6443,VALID,168,VALID,1.36094,
2010-03-04, 07:22:05,VALID,917.72,VALID,0,VALID,97.8618,VALID,85.9529,VALID,19.6443,VALID,145,VALID,1.87539,
2010-03-04, 07:23:05,VALID,917.746,VALID,0,VALID,97.8542,VALID,88.2092,VALID,19.6848,VALID,151,VALID,1.25469,
2010-03-04, 07:24:05,VALID,917.744,VALID,0,VALID,97.8465,VALID,95.4077,VALID,19.6233,VALID,120,VALID,2.01914,
2010-03-04, 07:25:05,VALID,917.751,VALID,0,VALID,97.8542,VALID,96.3747,VALID,19.6638,VALID,145,VALID,1.77227,
2010-03-04, 07:26:05,VALID,917.768,VALID,0,VALID,97.8313,VALID,101.424,VALID,19.7028,VALID,138,VALID,1.13828,
2010-03-04, 07:27:05,VALID,917.766,VALID,0,VALID,97.8389,VALID,93.1515,VALID,19.6833,VALID,172,VALID,1.47031,
2010-03-04, 07:28:05,VALID,917.764,VALID,0,VALID,97.8542,VALID,95.5152,VALID,19.7043,VALID,136,VALID,1.53984,
2010-03-04, 07:29:05,VALID,917.74,VALID,0,VALID,97.8313,VALID,98.8459,VALID,19.7043,VALID,151,VALID,1.22148,
2010-03-04, 07:30:05,VALID,917.744,VALID,0,VALID,97.8465,VALID,107.119,VALID,19.7043,VALID,138,VALID,0.812891,
2010-03-04, 07:31:05,VALID,917.716,VALID,0,VALID,97.8313,VALID,122.698,VALID,19.7043,VALID,162,VALID,1.89219,
2010-03-04, 07:32:05,VALID,917.727,VALID,0,VALID,97.8237,VALID,126.243,VALID,19.7238,VALID,187,VALID,1.12031,
2010-03-04, 07:33:05,VALID,917.718,VALID,0,VALID,97.8465,VALID,120.979,VALID,19.7238,VALID,154,VALID,1.84102,
2010-03-04, 07:34:05,VALID,917.712,VALID,0,VALID,97.8313,VALID,124.417,VALID,19.7823,VALID,186,VALID,0.692578,
2010-03-04, 07:35:05,VALID,917.715,VALID,0,VALID,97.8313,VALID,144.079,VALID,19.7628,VALID,174,VALID,2.1418,
2010-03-04, 07:36:05,VALID,917.723,VALID,0,VALID,97.8313,VALID,145.26,VALID,19.8018,VALID,145,VALID,1.71133,
2010-03-04, 07:37:05,VALID,917.729,VALID,0,VALID,97.8389,VALID,144.401,VALID,19.7823,VALID,153,VALID,1.11484,
2010-03-04, 07:38:05,VALID,917.712,VALID,0,VALID,97.8542,VALID,164.278,VALID,19.7628,VALID,158,VALID,1.94844,
2010-03-04, 07:39:05,VALID,917.768,VALID,0,VALID,97.8313,VALID,141.822,VALID,19.8213,VALID,178,VALID,1.47539,
2010-03-04, 07:40:05,VALID,917.732,VALID,0,VALID,97.8465,VALID,131.293,VALID,19.7823,VALID,168,VALID,2.16914,
2010-03-04, 07:41:05,VALID,917.78,VALID,0,VALID,97.816,VALID,138.599,VALID,19.7808,VALID,143,VALID,0.909375,
2010-03-04, 07:42:05,VALID,917.775,VALID,0,VALID,97.8389,VALID,165.889,VALID,19.8018,VALID,169,VALID,1.23945,
2010-03-04, 07:43:05,VALID,917.79,VALID,0,VALID,97.8237,VALID,167.501,VALID,19.8003,VALID,174,VALID,2.04336,
2010-03-04, 07:44:05,VALID,917.799,VALID,0,VALID,97.8084,VALID,146.979,VALID,19.8003,VALID,176,VALID,1.69414,
2010-03-04, 07:45:05,VALID,917.856,VALID,0,VALID,97.816,VALID,184.154,VALID,19.8378,VALID,171,VALID,1.65078,
2010-03-04, 07:46:05,VALID,917.85,VALID,0,VALID,97.8237,VALID,160.195,VALID,19.8588,VALID,142,VALID,1.27227,
2010-03-04, 07:47:05,VALID,917.885,VALID,0,VALID,97.7932,VALID,210.585,VALID,19.8978,VALID,182,VALID,1.45352,
2010-03-04, 07:48:05,VALID,917.896,VALID,0,VALID,97.8008,VALID,209.833,VALID,19.9368,VALID,166,VALID,1.57773,
2010-03-04, 07:49:05,VALID,917.923,VALID,0,VALID,97.8008,VALID,217.891,VALID,19.9743,VALID,151,VALID,1.16211,
2010-03-04, 07:50:05,VALID,917.899,VALID,0,VALID,97.7932,VALID,222.403,VALID,20.0148,VALID,161,VALID,1.57891,
2010-03-04, 07:51:05,VALID,917.915,VALID,0,VALID,97.8084,VALID,224.23,VALID,20.0343,VALID,133,VALID,1.22187,
2010-03-04, 07:52:04,VALID,917.938,VALID,0,VALID,97.816,VALID,233.04,VALID,20.0343,VALID,152,VALID,1.12227,
2010-03-04, 07:53:04,VALID,917.919,VALID,0,VALID,97.7856,VALID,231.965,VALID,20.1123,VALID,173,VALID,1.21797,
2010-03-04, 07:54:04,VALID,917.941,VALID,0,VALID,97.7779,VALID,221.759,VALID,20.1318,VALID,163,VALID,1.50234,
2010-03-04, 07:55:04,VALID,917.965,VALID,0,VALID,97.7779,VALID,233.147,VALID,20.1888,VALID,179,VALID,1.23047,
2010-03-04, 07:56:04,VALID,917.961,VALID,0,VALID,97.7627,VALID,236.156,VALID,20.2083,VALID,178,VALID,1.61094,
2010-03-04, 07:57:04,VALID,917.972,VALID,0,VALID,97.7703,VALID,240.346,VALID,20.1888,VALID,155,VALID,1.80156,
2010-03-04, 07:58:04,VALID,917.987,VALID,0,VALID,97.7627,VALID,245.288,VALID,20.2668,VALID,161,VALID,0.667188,
2010-03-04, 07:59:04,VALID,917.997,VALID,0,VALID,97.7551,VALID,239.916,VALID,20.3058,VALID,166,VALID,0.939844,
2010-03-04, 08:00:04,VALID,917.995,VALID,0,VALID,97.7398,VALID,254.098,VALID,20.3643,VALID,146,VALID,1.29492,
2010-03-04, 08:01:04,VALID,918.018,VALID,0,VALID,97.7398,VALID,252.272,VALID,20.3448,VALID,181,VALID,0.626172,
2010-03-04, 08:02:04,VALID,917.996,VALID,0,VALID,97.7474,VALID,257.429,VALID,20.3253,VALID,150,VALID,1.64609,
2010-03-04, 08:03:04,VALID,918.006,VALID,0,VALID,97.7398,VALID,264.628,VALID,20.3058,VALID,125,VALID,1.94258,
2010-03-04, 08:04:04,VALID,918.04,VALID,0,VALID,97.7322,VALID,269.248,VALID,20.3838,VALID,153,VALID,1.38477,
2010-03-04, 08:05:04,VALID,918.078,VALID,0,VALID,97.7169,VALID,274.512,VALID,20.4423,VALID,148,VALID,0.716797,
2010-03-04, 08:06:04,VALID,918.107,VALID,0,VALID,97.7246,VALID,280.529,VALID,20.4618,VALID,116,VALID,1.82227,
2010-03-04, 08:07:04,VALID,918.085,VALID,0,VALID,97.6941,VALID,268.173,VALID,20.4618,VALID,133,VALID,1.66055,
2010-03-04, 08:08:04,VALID,918.129,VALID,0,VALID,97.6941,VALID,281.926,VALID,20.5009,VALID,151,VALID,2.08984,
2010-03-04, 08:09:04,VALID,918.119,VALID,0,VALID,97.6941,VALID,298.149,VALID,20.4618,VALID,150,VALID,1.9168,
2010-03-04, 08:10:04,VALID,918.108,VALID,0,VALID,97.6636,VALID,278.165,VALID,20.4603,VALID,122,VALID,2.05352,
2010-03-04, 08:11:04,VALID,918.104,VALID,0,VALID,97.656,VALID,312.117,VALID,20.5594,VALID,151,VALID,1.07695,
2010-03-04, 08:12:04,VALID,918.091,VALID,0,VALID,97.6636,VALID,315.232,VALID,20.5594,VALID,150,VALID,1.44219,
2010-03-04, 08:13:04,VALID,918.112,VALID,0,VALID,97.6331,VALID,322.431,VALID,20.6585,VALID,148,VALID,1.48164,
2010-03-04, 08:14:04,VALID,918.11,VALID,0,VALID,97.6178,VALID,322.753,VALID,20.7349,VALID,141,VALID,1.13945,
2010-03-04, 08:15:04,VALID,918.139,VALID,0,VALID,97.6331,VALID,332.638,VALID,20.7755,VALID,192,VALID,1.17578,
2010-03-04, 08:16:04,VALID,918.132,VALID,0,VALID,97.595,VALID,336.183,VALID,20.795,VALID,145,VALID,0.941406,
2010-03-04, 08:17:04,VALID,918.169,VALID,0,VALID,97.5873,VALID,337.15,VALID,20.7934,VALID,149,VALID,1.79258,
2010-03-04, 08:18:04,VALID,918.169,VALID,0,VALID,97.5797,VALID,307.711,VALID,20.7755,VALID,115,VALID,1.72734,
2010-03-04, 08:19:04,VALID,918.204,VALID,0,VALID,97.5797,VALID,348.754,VALID,20.8519,VALID,141,VALID,1.32813,
2010-03-04, 08:20:04,VALID,918.178,VALID,0,VALID,97.5569,VALID,346.82,VALID,20.8129,VALID,137,VALID,1.68633,
2010-03-04, 08:21:04,VALID,918.215,VALID,0,VALID,97.5416,VALID,343.167,VALID,20.8714,VALID,168,VALID,1.85,
2010-03-04, 08:22:04,VALID,918.209,VALID,0,VALID,97.5111,VALID,361.432,VALID,20.9105,VALID,152,VALID,1.40977,
2010-03-04, 08:23:04,VALID,918.213,VALID,0,VALID,97.5035,VALID,353.267,VALID,21.0275,VALID,160,VALID,0.61875,
2010-03-04, 08:24:04,VALID,918.222,VALID,0,VALID,97.473,VALID,378.623,VALID,21.0665,VALID,148,VALID,1.27266,
2010-03-04, 08:25:04,VALID,918.215,VALID,0,VALID,97.4882,VALID,348.754,VALID,21.086,VALID,177,VALID,1.27734,
2010-03-04, 08:26:04,VALID,918.233,VALID,0,VALID,97.4577,VALID,388.292,VALID,21.1429,VALID,147,VALID,0.816797,
2010-03-04, 08:27:04,VALID,918.234,VALID,0,VALID,97.3891,VALID,393.449,VALID,21.1445,VALID,129,VALID,1.63008,
2010-03-04, 08:28:04,VALID,918.265,VALID,0,VALID,97.3663,VALID,391.516,VALID,21.164,VALID,143,VALID,1.16484,
2010-03-04, 08:29:04,VALID,918.278,VALID,0,VALID,97.3281,VALID,395.061,VALID,21.1819,VALID,136,VALID,1.43555,
2010-03-04, 08:30:04,VALID,918.272,VALID,0,VALID,97.2824,VALID,396.888,VALID,21.2405,VALID,122,VALID,1.30352,
2010-03-04, 08:31:04,VALID,918.279,VALID,0,VALID,97.1909,VALID,401.293,VALID,21.3786,VALID,59,VALID,0.924219,
2010-03-04, 08:32:04,VALID,918.289,VALID,0,VALID,97.1299,VALID,396.458,VALID,21.455,VALID,135,VALID,0.4625,
2010-03-04, 08:33:04,VALID,918.309,VALID,0,VALID,96.9698,VALID,396.888,VALID,21.5152,VALID,164,VALID,1.26484,
2010-03-04, 08:34:04,VALID,918.298,VALID,0,VALID,96.5582,VALID,392.483,VALID,21.5526,VALID,133,VALID,0.856641,
2010-03-04, 08:35:04,VALID,918.277,VALID,0,VALID,96.3752,VALID,388.077,VALID,21.5916,VALID,165,VALID,0.477734,
2010-03-04, 08:36:04,VALID,918.266,VALID,0,VALID,96.1999,VALID,383.887,VALID,21.6501,VALID,124,VALID,1.28398,
2010-03-04, 08:37:04,VALID,918.297,VALID,0,VALID,95.9254,VALID,386.036,VALID,21.6501,VALID,147,VALID,0.721484,
2010-03-04, 08:38:04,VALID,918.293,VALID,0,VALID,95.2927,VALID,391.301,VALID,21.6306,VALID,161,VALID,1.1875,
2010-03-04, 08:39:04,VALID,918.297,VALID,0,VALID,94.416,VALID,407.202,VALID,21.5737,VALID,167,VALID,1.68555,
2010-03-04, 08:40:04,VALID,918.324,VALID,0,VALID,94.7362,VALID,428.583,VALID,21.5737,VALID,136,VALID,0.813281,
2010-03-04, 08:41:04,VALID,918.331,VALID,0,VALID,94.6676,VALID,442.335,VALID,21.5932,VALID,179,VALID,0.961328,
2010-03-04, 08:42:04,VALID,918.358,VALID,0,VALID,94.8277,VALID,446.955,VALID,21.6323,VALID,165,VALID,1.61406,
2010-03-04, 08:43:04,VALID,918.359,VALID,0,VALID,94.4465,VALID,442.98,VALID,21.6518,VALID,184,VALID,1.37305,
2010-03-04, 08:44:04,VALID,918.357,VALID,0,VALID,95.0335,VALID,452.22,VALID,21.7688,VALID,184,VALID,0.24375,
2010-03-04, 08:45:04,VALID,918.409,VALID,0,VALID,94.9954,VALID,465.328,VALID,21.8469,VALID,184,VALID,0.850391,
2010-03-04, 08:46:04,VALID,918.388,VALID,0,VALID,94.7743,VALID,461.675,VALID,21.9444,VALID,184,VALID,0.653906,
2010-03-04, 08:47:04,VALID,918.419,VALID,0,VALID,94.0425,VALID,472.956,VALID,21.9835,VALID,184,VALID,1.24023,
2010-03-04, 08:48:04,VALID,918.422,VALID,0,VALID,93.6079,VALID,465.65,VALID,21.9444,VALID,184,VALID,1.30195,
2010-03-04, 08:49:04,VALID,918.462,VALID,0,VALID,93.3259,VALID,469.196,VALID,21.964,VALID,147,VALID,1.3918,
2010-03-04, 08:50:04,VALID,918.44,VALID,0,VALID,93.768,VALID,474.782,VALID,22.0225,VALID,196,VALID,1.00273,
2010-03-04, 08:51:04,VALID,918.426,VALID,0,VALID,93.6918,VALID,481.444,VALID,22.0989,VALID,195,VALID,0.825391,
2010-03-04, 08:52:04,VALID,918.458,VALID,0,VALID,93.4707,VALID,488.75,VALID,22.1396,VALID,195,VALID,0.763281,
2010-03-04, 08:53:04,VALID,918.46,VALID,0,VALID,94.2712,VALID,498.205,VALID,22.2745,VALID,195,VALID,0.368359,
2010-03-04, 08:54:04,VALID,918.465,VALID,0,VALID,94.5685,VALID,488.105,VALID,22.4306,VALID,195,VALID,0.411328,
2010-03-04, 08:55:04,VALID,918.482,VALID,0,VALID,93.0133,VALID,521.842,VALID,22.4891,VALID,145,VALID,1.3125,
2010-03-04, 08:56:04,VALID,918.481,VALID,0,VALID,92.4263,VALID,506.37,VALID,22.5494,VALID,177,VALID,0.675391,
2010-03-04, 08:57:04,VALID,918.495,VALID,0,VALID,91.9918,VALID,496.271,VALID,22.5884,VALID,177,VALID,1.04961,
2010-03-04, 08:58:04,VALID,918.521,VALID,0,VALID,92.3424,VALID,497.667,VALID,22.6647,VALID,178,VALID,1.04453,
2010-03-04, 08:59:04,VALID,918.527,VALID,0,VALID,91.9841,VALID,491.006,VALID,22.6843,VALID,178,VALID,0.995313,
2010-03-04, 09:00:04,VALID,918.522,VALID,0,VALID,91.7326,VALID,493.907,VALID,22.7428,VALID,178,VALID,1.06914,
2010-03-04, 09:01:04,VALID,918.532,VALID,0,VALID,91.2218,VALID,497.667,VALID,22.7428,VALID,178,VALID,1.39609,
2010-03-04, 09:02:04,VALID,918.544,VALID,0,VALID,90.7034,VALID,517.329,VALID,22.7428,VALID,178,VALID,0.958203,
2010-03-04, 09:03:04,VALID,918.574,VALID,0,VALID,92.3882,VALID,512.279,VALID,22.8014,VALID,178,VALID,0.219531,
2010-03-04, 09:04:04,VALID,918.545,VALID,0,VALID,90.2917,VALID,524.205,VALID,22.7623,VALID,178,VALID,1.3,
2010-03-04, 09:05:04,VALID,918.542,VALID,0,VALID,90.5891,VALID,531.189,VALID,22.7818,VALID,178,VALID,1.04258,
2010-03-04, 09:06:04,VALID,918.544,VALID,0,VALID,91.2447,VALID,522.271,VALID,22.8209,VALID,178,VALID,0.582031,
2010-03-04, 09:07:04,VALID,918.539,VALID,0,VALID,91.0083,VALID,541.826,VALID,22.8777,VALID,178,VALID,0.631641,
2010-03-04, 09:08:04,VALID,918.532,VALID,0,VALID,91.4962,VALID,553.859,VALID,23.016,VALID,178,VALID,0.781641,
2010-03-04, 09:09:04,VALID,918.571,VALID,0,VALID,90.6958,VALID,555.256,VALID,23.1527,VALID,177,VALID,0.846484,
2010-03-04, 09:10:04,VALID,918.562,VALID,0,VALID,90.5586,VALID,565.033,VALID,23.2485,VALID,177,VALID,0.76875,
2010-03-04, 09:11:04,VALID,918.543,VALID,0,VALID,90.2841,VALID,568.686,VALID,23.307,VALID,177,VALID,0.649219,
2010-03-04, 09:12:04,VALID,918.537,VALID,0,VALID,89.7505,VALID,574.595,VALID,23.4259,VALID,177,VALID,0.255859,
2010-03-04, 09:13:04,VALID,918.575,VALID,0,VALID,90.1774,VALID,576.529,VALID,23.5217,VALID,177,VALID,0.470703,
2010-03-04, 09:14:04,VALID,918.564,VALID,0,VALID,90.7339,VALID,583.513,VALID,23.6584,VALID,177,VALID,0.218359,
2010-03-04, 09:15:04,VALID,918.582,VALID,0,VALID,88.95,VALID,586.091,VALID,23.7578,VALID,177,VALID,0.102734,
2010-03-04, 09:16:04,VALID,918.559,VALID,0,VALID,90.5128,VALID,585.339,VALID,23.8944,VALID,177,VALID,0.260547,
2010-03-04, 09:17:04,VALID,918.551,VALID,0,VALID,87.0213,VALID,584.48,VALID,23.9725,VALID,177,VALID,0.79375,
2010-03-04, 09:18:04,VALID,918.551,VALID,0,VALID,87.1661,VALID,591.141,VALID,23.9707,VALID,177,VALID,0.729297,
2010-03-04, 09:19:04,VALID,918.58,VALID,0,VALID,87.7913,VALID,580.827,VALID,24.0878,VALID,177,VALID,0.525,
2010-03-04, 09:20:04,VALID,918.55,VALID,0,VALID,86.1217,VALID,582.224,VALID,24.1287,VALID,177,VALID,0.739062,
2010-03-04, 09:21:04,VALID,918.582,VALID,0,VALID,85.2984,VALID,593.29,VALID,24.1269,VALID,177,VALID,0.873438,
2010-03-04, 09:22:04,VALID,918.566,VALID,0,VALID,87.0213,VALID,598.34,VALID,24.1659,VALID,177,VALID,0.411719,
2010-03-04, 09:23:04,VALID,918.596,VALID,0,VALID,88.1724,VALID,601.133,VALID,24.2245,VALID,177,VALID,0.176172,
2010-03-04, 09:24:04,VALID,918.612,VALID,0,VALID,86.2742,VALID,603.497,VALID,24.283,VALID,177,VALID,0.447266,
2010-03-04, 09:25:04,VALID,918.625,VALID,0,VALID,86.0684,VALID,607.257,VALID,24.3611,VALID,177,VALID,0.553516,
2010-03-04, 09:26:04,VALID,918.646,VALID,0,VALID,86.9527,VALID,616.712,VALID,24.4411,VALID,177,VALID,0.444141,
2010-03-04, 09:27:04,VALID,918.653,VALID,0,VALID,86.8002,VALID,620.902,VALID,24.5759,VALID,177,VALID,0.377344,
2010-03-04, 09:28:04,VALID,918.667,VALID,0,VALID,84.0863,VALID,625.093,VALID,24.5954,VALID,177,VALID,0.444922,
2010-03-04, 09:29:04,VALID,918.684,VALID,0,VALID,85.3213,VALID,625.952,VALID,24.5954,VALID,177,VALID,0,
2010-03-04, 09:30:04,VALID,918.689,VALID,0,VALID,84.9706,VALID,635.407,VALID,24.7126,VALID,177,VALID,0.43125,
2010-03-04, 09:31:04,VALID,918.681,VALID,0,VALID,85.0545,VALID,627.349,VALID,24.8492,VALID,177,VALID,0.448438,
2010-03-04, 09:32:04,VALID,918.691,VALID,0,VALID,85.1536,VALID,614.134,VALID,25.0445,VALID,177,VALID,0.258594,
2010-03-04, 09:33:04,VALID,918.676,VALID,0,VALID,84.2921,VALID,621.547,VALID,25.2183,VALID,177,VALID,0.375,
2010-03-04, 09:34:04,VALID,918.69,VALID,0,VALID,81.2199,VALID,615.853,VALID,25.3765,VALID,177,VALID,0.673828,
2010-03-04, 09:35:04,VALID,918.675,VALID,0,VALID,80.5566,VALID,622.944,VALID,25.2769,VALID,177,VALID,0.3875,
2010-03-04, 09:36:04,VALID,918.665,VALID,0,VALID,80.3203,VALID,633.795,VALID,25.1207,VALID,177,VALID,0.684766,
2010-03-04, 09:37:04,VALID,918.676,VALID,0,VALID,83.6517,VALID,643.787,VALID,25.0231,VALID,177,VALID,0.348828,
2010-03-04, 09:38:04,VALID,918.676,VALID,0,VALID,80.0154,VALID,631.969,VALID,25.1207,VALID,177,VALID,0.535937,
2010-03-04, 09:39:04,VALID,918.692,VALID,0,VALID,78.8871,VALID,643.68,VALID,25.0621,VALID,177,VALID,0.627734,
2010-03-04, 09:40:04,VALID,918.665,VALID,0,VALID,82.7217,VALID,644.11,VALID,25.0426,VALID,177,VALID,0.282422,
2010-03-04, 09:41:04,VALID,918.646,VALID,0,VALID,78.6584,VALID,654.424,VALID,25.0817,VALID,177,VALID,0.916406,
2010-03-04, 09:42:04,VALID,918.655,VALID,0,VALID,80.7243,VALID,661.085,VALID,24.9821,VALID,177,VALID,0.605469,
2010-03-04, 09:43:04,VALID,918.61,VALID,0,VALID,80.5261,VALID,646.903,VALID,25.1031,VALID,177,VALID,1.06953,
2010-03-04, 09:44:04,VALID,918.621,VALID,0,VALID,79.9086,VALID,655.928,VALID,25.0836,VALID,349,VALID,0.996094,
2010-03-04, 09:45:04,VALID,918.586,VALID,0,VALID,80.9836,VALID,662.482,VALID,24.9859,VALID,349,VALID,0.958984,
2010-03-04, 09:46:04,VALID,918.575,VALID,0,VALID,82.4015,VALID,671.507,VALID,24.9469,VALID,349,VALID,0.353125,
2010-03-04, 09:47:04,VALID,918.574,VALID,0,VALID,80.9454,VALID,666.672,VALID,24.9664,VALID,349,VALID,0.668359,
2010-03-04, 09:48:04,VALID,918.564,VALID,0,VALID,83.4612,VALID,654.531,VALID,24.9859,VALID,349,VALID,0.595703,
2010-03-04, 09:49:04,VALID,918.56,VALID,0,VALID,81.9517,VALID,630.357,VALID,25.1031,VALID,348,VALID,0.93125,
2010-03-04, 09:50:04,VALID,918.558,VALID,0,VALID,79.7409,VALID,649.267,VALID,25.1988,VALID,348,VALID,0.778906,
2010-03-04, 09:51:04,VALID,918.523,VALID,0,VALID,80.8997,VALID,642.606,VALID,25.2593,VALID,348,VALID,1.04961,
2010-03-04, 09:52:04,VALID,918.505,VALID,0,VALID,79.3826,VALID,661.515,VALID,25.4156,VALID,348,VALID,0.995313,
2010-03-04, 09:53:04,VALID,918.478,VALID,0,VALID,79.3979,VALID,663.664,VALID,25.5913,VALID,356,VALID,1.23594,
2010-03-04, 09:54:04,VALID,918.471,VALID,0,VALID,79.5351,VALID,670.003,VALID,25.5913,VALID,25,VALID,0.901172,
2010-03-04, 09:55:04,VALID,918.452,VALID,0,VALID,80.7777,VALID,666.995,VALID,25.6304,VALID,37,VALID,1.78555,
2010-03-04, 09:56:04,VALID,918.418,VALID,0,VALID,77.8275,VALID,653.457,VALID,25.7085,VALID,45,VALID,1.63789,
2010-03-04, 09:57:04,VALID,918.416,VALID,0,VALID,78.5745,VALID,645.614,VALID,25.689,VALID,45,VALID,1.46328,
2010-03-04, 09:58:04,VALID,918.442,VALID,0,VALID,78.445,VALID,641.531,VALID,25.7261,VALID,52,VALID,1.60703,
2010-03-04, 09:59:04,VALID,918.442,VALID,0,VALID,78.6355,VALID,628.746,VALID,25.7066,VALID,52,VALID,0.713672,
2010-03-04, 10:00:04,VALID,918.445,VALID,0,VALID,73.3144,VALID,632.721,VALID,25.6694,VALID,360,VALID,1.76016,
2010-03-04, 10:01:04,VALID,918.411,VALID,0,VALID,75.5709,VALID,639.382,VALID,25.5698,VALID,37,VALID,1.29375,
2010-03-04, 10:02:04,VALID,918.433,VALID,0,VALID,78.6203,VALID,642.606,VALID,25.5503,VALID,42,VALID,2.13086,
2010-03-04, 10:03:04,VALID,918.44,VALID,0,VALID,78.7346,VALID,628.208,VALID,25.687,VALID,350,VALID,1.15156,
2010-03-04, 10:04:04,VALID,918.436,VALID,0,VALID,77.7055,VALID,643.035,VALID,25.8628,VALID,350,VALID,0.408594,
2010-03-04, 10:05:04,VALID,918.427,VALID,0,VALID,76.0512,VALID,662.16,VALID,25.9995,VALID,350,VALID,0.545703,
2010-03-04, 10:06:04,VALID,918.431,VALID,0,VALID,74.9077,VALID,670.54,VALID,26.0972,VALID,350,VALID,1.54141,
2010-03-04, 10:07:04,VALID,918.42,VALID,0,VALID,76.4171,VALID,674.301,VALID,26.0581,VALID,349,VALID,1.0793,
2010-03-04, 10:08:04,VALID,918.434,VALID,0,VALID,77.2252,VALID,662.697,VALID,26.1382,VALID,349,VALID,0.310547,
2010-03-04, 10:09:04,VALID,918.411,VALID,0,VALID,73.1619,VALID,676.879,VALID,26.2339,VALID,349,VALID,0.517969,
2010-03-04, 10:10:04,VALID,918.409,VALID,0,VALID,74.3054,VALID,683.003,VALID,26.3706,VALID,349,VALID,1.00859,
2010-03-04, 10:11:04,VALID,918.396,VALID,0,VALID,72.7198,VALID,674.73,VALID,26.5855,VALID,349,VALID,0.261328,
2010-03-04, 10:12:04,VALID,918.421,VALID,0,VALID,70.0592,VALID,672.259,VALID,26.6832,VALID,349,VALID,1.1707,
2010-03-04, 10:13:04,VALID,918.405,VALID,0,VALID,71.9727,VALID,691.921,VALID,26.6461,VALID,349,VALID,0.636328,
2010-03-04, 10:14:04,VALID,918.426,VALID,0,VALID,70.9816,VALID,705.136,VALID,26.6246,VALID,267,VALID,0.758203,
2010-03-04, 10:15:04,VALID,918.444,VALID,0,VALID,72.6816,VALID,717.062,VALID,26.6461,VALID,267,VALID,0.352344,
2010-03-04, 10:16:04,VALID,918.445,VALID,0,VALID,71.8354,VALID,718.889,VALID,26.6071,VALID,267,VALID,0.814062,
2010-03-04, 10:17:04,VALID,918.472,VALID,0,VALID,71.0197,VALID,718.996,VALID,26.6852,VALID,267,VALID,0.254297,
2010-03-04, 10:18:04,VALID,918.433,VALID,0,VALID,69.1139,VALID,730.6,VALID,26.6461,VALID,267,VALID,1.10898,
2010-03-04, 10:19:04,VALID,918.469,VALID,0,VALID,69.6628,VALID,728.129,VALID,26.4488,VALID,267,VALID,0.705859,
2010-03-04, 10:20:04,VALID,918.478,VALID,0,VALID,73.2915,VALID,724.583,VALID,26.4097,VALID,267,VALID,0.878125,
2010-03-04, 10:21:04,VALID,918.491,VALID,0,VALID,72.1175,VALID,721.36,VALID,26.4097,VALID,267,VALID,1.08398,
2010-03-04, 10:22:04,VALID,918.492,VALID,0,VALID,73.8557,VALID,725.872,VALID,26.4292,VALID,267,VALID,0.607031,
2010-03-04, 10:23:04,VALID,918.502,VALID,0,VALID,71.9879,VALID,725.55,VALID,26.4878,VALID,267,VALID,0.976953,
2010-03-04, 10:24:04,VALID,918.503,VALID,0,VALID,74.0386,VALID,725.872,VALID,26.3902,VALID,267,VALID,0.825781,
2010-03-04, 10:25:04,VALID,918.49,VALID,0,VALID,75.9521,VALID,734.36,VALID,26.4077,VALID,267,VALID,0.487109,
2010-03-04, 10:26:04,VALID,918.481,VALID,0,VALID,72.4377,VALID,721.36,VALID,26.5054,VALID,267,VALID,0.774609,
2010-03-04, 10:27:04,VALID,918.483,VALID,0,VALID,72.8036,VALID,720.608,VALID,26.5074,VALID,267,VALID,0.769922,
2010-03-04, 10:28:04,VALID,918.483,VALID,0,VALID,73.5736,VALID,740.699,VALID,26.5464,VALID,267,VALID,0.456641,
2010-03-04, 10:29:04,VALID,918.48,VALID,0,VALID,73.4974,VALID,764.121,VALID,26.7027,VALID,267,VALID,0.439453,
2010-03-04, 10:30:04,VALID,918.472,VALID,0,VALID,71.1646,VALID,770.246,VALID,26.859,VALID,267,VALID,0.573438,
2010-03-04, 10:31:04,VALID,918.448,VALID,0,VALID,70.2955,VALID,776.585,VALID,27.0153,VALID,267,VALID,0.279687,
2010-03-04, 10:32:04,VALID,918.458,VALID,0,VALID,70.9816,VALID,780.453,VALID,27.0739,VALID,267,VALID,0.742969,
2010-03-04, 10:33:04,VALID,918.461,VALID,0,VALID,70.2879,VALID,787.544,VALID,27.113,VALID,267,VALID,0.457031,